Wind_Speed
13 13 13 13 15 14 12 12 12 13 13 13 13 12 12 11 9 7 6 5 4 4 5 6 6 6 6 6 6 7 7 8 9 9 9 10 9 9 9 8 8 7 7 6 6 6 5 5 5
12 12 12 13 14 11 11 11 12 13 13 12 13 13 12 11 10 8 6 5 4 3 3 4 5 6 6 6 6 7 7 7 8 9 9 9 8 8 7 7 7 6 6 6 5 5 5 4 4
10 10 11 12 10 8 9 10 11 12 12 13 13 13 13 12 10 8 7 5 4 3 2 3 4 5 6 6 6 6 6 7 8 8 8 8 7 7 7 6 6 6 6 5 5 5 4 4 4
9 10 10 10 7 7 8 9 10 11 11 12 13 13 13 12 11 9 7 6 5 3 2 2 3 4 5 6 6 7 7 7 7 7 7 7 6 6 6 5 5 5 5 5 5 4 4 4 4
8 9 10 7 6 7 8 9 9 9 10 11 11 12 12 12 10 9 8 6 4 3 2 1 2 3 4 5 6 7 7 7 7 7 6 6 5 5 5 4 4 4 4 4 5 4 4 4 3
8 9 8 4 6 7 7 7 8 9 9 9 10 10 11 11 10 9 8 7 5 3 1 1 2 3 4 5 6 6 7 7 7 7 6 6 5 4 4 4 4 4 4 4 4 4 3 3 3
7 8 6 5 6 7 7 7 7 9 9 8 9 9 10 10 10 9 9 8 6 4 3 3 3 4 5 6 7 7 7 7 7 7 7 6 5 4 3 3 3 3 3 3 3 3 3 3 3
6 7 6 5 5 6 7 7 7 8 9 8 8 9 9 10 9 9 9 8 7 6 5 4 4 5 6 7 8 8 8 8 8 8 7 7 6 4 3 2 2 3 3 3 3 3 3 3 2
6 5 4 4 4 5 7 7 7 8 8 7 7 8 9 10 9 9 9 9 8 7 7 5 5 5 6 7 8 9 9 9 9 8 8 7 6 5 3 2 2 2 3 3 3 2 3 3 2
5 4 3 4 4 5 6 6 6 7 7 7 7 8 9 9 9 9 10 10 9 9 8 7 6 6 7 8 9 9 10 10 10 9 9 8 7 5 4 3 3 2 2 2 2 3 3 3 2
5 4 4 4 4 4 5 5 5 6 7 7 7 8 8 9 10 10 10 11 10 10 9 8 7 7 8 8 9 10 10 10 11 11 10 9 8 7 5 4 3 2 2 2 2 3 3 2 2
6 6 5 5 5 5 5 5 5 6 7 7 7 8 8 9 10 11 11 12 12 12 12 10 9 8 9 9 9 10 11 12 12 12 11 10 9 8 6 5 3 2 2 3 3 2 2 2 2
6 6 6 7 6 6 5 5 5 6 7 7 7 8 9 9 10 11 12 13 13 14 12 11 9 9 10 11 11 11 12 12 12 12 11 11 9 9 8 6 4 3 3 3 3 2 2 2 3
7 7 7 8 8 7 6 5 5 6 7 7 8 9 9 10 10 12 13 14 15 14 12 11 10 10 10 11 12 11 13 13 12 12 12 12 11 10 8 7 5 4 3 3 2 2 2 2 2
9 9 8 8 8 7 6 6 6 6 7 8 8 8 9 10 11 13 15 16 16 14 13 10 9 10 10 10 11 13 13 13 14 13 13 13 12 11 10 8 6 5 4 3 2 2 2 2 2
10 10 10 10 8 7 6 6 8 7 7 8 9 9 10 11 12 14 16 17 15 14 13 11 10 10 9 10 11 13 14 14 14 14 14 13 13 12 11 9 7 6 5 4 3 3 2 2 2
11 10 10 11 9 8 7 7 9 8 8 9 10 10 11 12 13 14 15 14 14 14 12 11 10 9 8 9 10 13 14 14 14 14 14 14 14 13 12 10 8 7 6 5 3 3 2 2 2
12 12 12 12 10 9 8 9 9 9 9 10 10 11 11 12 12 13 12 13 13 13 12 11 9 8 8 9 11 12 14 16 15 15 15 15 15 14 13 11 10 8 7 5 4 3 2 2 2
13 13 13 13 12 10 9 9 10 11 10 11 11 11 12 12 12 12 12 12 12 12 11 10 9 7 7 9 11 12 14 15 15 15 15 15 15 15 13 12 11 10 8 7 5 4 3 3 2
15 14 14 14 13 11 10 10 11 12 12 12 12 12 12 13 12 12 12 13 12 11 11 9 8 7 7 9 11 13 14 15 15 15 15 16 16 15 14 12 11 11 9 8 6 5 4 3 3
16 16 16 16 14 13 11 11 12 13 13 12 12 13 13 13 13 11 12 13 13 11 10 9 8 7 7 9 11 12 13 14 14 15 16 17 17 16 15 13 13 12 10 9 8 6 5 4 4
19 18 17 16 14 14 11 10 14 13 12 12 13 14 14 13 12 11 12 12 12 11 10 9 8 6 7 8 10 11 12 14 15 16 17 17 17 17 16 15 14 13 11 10 9 8 7 6 6
21 19 18 16 14 14 13 11 13 13 12 13 13 13 13 12 12 12 11 11 11 10 10 9 8 6 6 8 9 10 12 14 16 16 17 18 18 17 17 16 15 14 13 12 11 9 8 7 7
22 19 18 16 15 14 14 12 12 13 12 12 12 12 11 11 10 10 10 10 10 10 9 8 7 6 6 7 9 10 11 14 15 17 18 18 18 18 17 17 16 15 15 13 12 11 10 9 9
21 19 17 16 15 14 15 13 13 13 11 11 11 10 10 10 10 10 10 9 9 9 8 8 7 6 5 6 8 9 10 12 15 17 18 18 18 18 18 18 17 17 16 15 14 13 12 12 11
22 20 18 15 13 14 16 14 14 13 11 11 10 10 9 9 9 9 9 9 9 8 8 7 7 6 5 6 7 9 10 11 13 16 18 18 18 18 17 17 18 17 17 16 16 15 14 14 13
24 21 19 18 17 15 15 15 14 13 12 11 11 10 9 8 8 8 8 9 9 8 7 7 7 6 5 5 6 7 9 11 13 15 17 17 18 18 18 18 18 18 18 18 17 16 16 16 15
25 23 22 20 18 16 15 14 13 13 12 12 11 10 9 9 8 8 9 8 8 8 7 7 7 6 5 5 6 7 9 10 13 14 15 16 16 17 18 19 19 19 20 20 19 18 18 18 18
25 24 23 21 20 16 13 14 14 13 12 11 11 10 9 8 9 8 8 8 7 7 7 7 7 7 6 6 6 7 8 10 12 13 14 15 16 17 18 19 20 20 19 20 21 20 20 19 19
25 24 22 21 20 17 14 14 15 13 12 12 11 11 10 9 9 9 9 9 9 9 9 8 8 8 8 7 7 8 8 9 11 13 14 15 16 17 18 19 20 20 20 19 20 21 22 21 21
Wind_Direction
71 70 67 65 63 65 66 64 63 60 60 61 61 61 61 62 62 60 65 73 84 114 141 153 157 162 163 162 160 154 144 135 129 122 115 108 101 96 92 89 87 86 86 88 88 92 95 97 100
69 68 67 64 68 67 62 61 62 60 59 57 57 57 56 56 58 60 62 66 72 97 140 155 164 171 173 171 165 160 154 143 135 127 119 113 105 98 94 90 84 87 86 85 84 90 96 99 103
67 65 63 64 72 72 60 54 55 58 57 55 54 54 53 51 52 55 57 58 62 74 118 154 169 177 179 177 170 165 161 151 141 133 126 119 111 103 97 93 88 86 83 81 81 89 97 100 105
63 61 61 67 67 54 48 47 47 52 51 51 50 50 50 48 47 47 46 48 52 63 90 134 172 182 187 185 181 175 169 160 151 143 133 125 117 108 100 98 94 87 80 78 79 90 98 101 103
57 55 60 64 53 45 42 36 36 42 42 47 47 45 44 43 43 41 39 38 39 52 78 119 195 201 200 197 194 186 178 172 163 154 146 137 128 115 105 99 95 89 85 83 81 89 99 105 106
53 53 64 60 38 37 34 26 27 33 35 40 42 39 38 37 36 36 34 36 34 26 359 280 247 230 221 209 203 196 190 183 174 166 161 154 141 127 114 103 94 88 89 82 81 84 94 105 111
46 53 61 47 31 27 28 22 19 21 22 26 30 32 31 27 28 28 27 25 20 9 338 292 261 248 233 221 213 207 201 194 184 178 176 169 158 143 126 110 92 85 82 78 80 80 85 92 100
37 42 39 29 26 18 20 17 16 10 10 11 17 24 21 18 19 20 20 15 7 358 341 316 281 258 243 229 219 215 210 203 192 185 183 178 171 159 142 120 100 94 86 85 85 78 82 88 92
23 32 17 8 13 12 14 12 10 5 4 5 8 13 8 7 9 9 6 1 357 349 337 312 285 271 248 237 226 219 212 204 196 190 188 187 183 173 160 143 127 113 96 90 86 75 77 85 88
7 12 346 351 360 5 6 3 358 355 355 355 356 1 0 359 360 359 354 349 343 334 328 310 293 273 252 243 233 224 216 209 202 195 193 193 190 185 178 165 150 132 103 90 87 84 83 83 90
346 344 340 337 339 346 348 346 341 341 341 340 344 351 350 350 350 348 345 339 334 329 321 307 290 272 251 246 242 227 219 215 209 203 200 198 194 190 187 175 160 143 114 102 101 99 91 89 91
325 330 329 324 324 329 327 328 327 322 323 325 331 342 343 341 341 340 336 330 329 323 316 304 285 268 252 249 247 230 221 217 210 208 206 202 198 193 191 182 169 152 129 121 115 101 92 93 98
309 316 317 318 320 324 318 313 314 312 315 316 318 324 329 331 333 333 333 331 326 320 313 307 293 268 255 247 242 229 221 215 212 211 208 205 201 197 194 187 177 163 144 134 123 109 95 91 101
300 305 308 312 317 321 315 305 305 308 309 307 310 316 322 322 326 329 329 327 325 322 314 303 291 274 258 250 237 225 218 215 214 212 209 208 206 203 197 190 184 174 162 150 132 117 112 104 100
293 300 302 306 312 318 312 302 299 303 304 303 307 313 318 318 321 326 328 325 322 319 314 302 281 274 258 246 236 224 218 214 214 212 210 211 210 207 201 194 189 181 175 161 147 127 113 105 100
287 292 296 299 307 314 309 293 290 297 302 303 302 308 313 316 318 322 326 324 320 317 312 304 280 268 252 243 231 219 214 212 212 211 210 213 213 210 205 200 195 188 179 169 158 137 124 115 107
280 285 286 294 303 307 301 288 289 293 296 300 300 302 307 314 317 318 323 327 323 320 317 304 283 262 253 246 225 215 211 210 210 210 211 210 209 206 204 200 196 193 187 180 170 150 135 122 113
271 276 282 288 298 302 298 292 294 294 294 298 297 299 303 309 315 319 323 329 326 323 318 310 297 270 252 236 221 214 213 211 211 209 207 205 202 201 203 203 200 196 191 184 177 168 150 139 124
264 271 278 284 292 297 295 291 292 295 294 293 294 297 299 306 310 313 319 325 325 323 319 309 298 273 248 233 218 211 210 210 210 207 205 201 199 200 203 204 201 198 194 192 190 181 168 153 143
262 267 273 279 287 293 294 291 290 292 292 292 290 293 297 300 304 310 315 324 327 323 321 318 310 280 258 232 223 212 209 209 207 205 203 203 203 204 205 206 202 199 198 199 198 194 188 178 169
259 262 267 275 286 288 291 293 288 290 291 288 286 289 294 297 301 308 315 323 325 321 314 314 310 291 260 229 226 219 214 212 209 207 204 206 208 207 206 205 203 201 201 203 203 201 200 199 195
256 259 265 273 280 283 287 280 286 290 291 286 283 284 289 296 300 304 310 319 324 320 317 313 313 291 261 239 223 217 219 216 214 212 210 208 208 209 208 205 205 204 205 207 208 208 206 210 213
253 258 264 271 275 278 282 277 280 289 287 285 284 285 289 294 295 298 306 315 320 320 318 318 317 298 270 246 227 222 224 220 220 217 213 209 209 211 211 208 208 208 210 211 212 214 217 222 225
253 258 262 266 270 272 275 276 275 281 284 285 286 287 289 291 296 296 303 312 317 318 318 316 312 302 277 244 233 230 228 223 219 215 213 211 211 213 213 211 212 212 213 214 216 218 222 227 230
250 253 256 260 265 267 271 272 269 274 279 282 286 288 286 289 296 296 300 307 313 317 321 319 311 302 280 248 236 235 230 222 218 214 213 213 212 214 216 216 217 217 218 220 221 224 227 229 233
245 245 245 247 256 262 271 269 271 274 275 277 280 283 285 289 294 297 299 302 306 311 320 324 320 305 287 254 241 237 229 221 218 214 216 215 216 218 221 221 224 224 224 225 227 229 232 234 236
241 240 241 244 248 248 261 269 269 272 275 273 275 280 282 283 288 291 299 300 300 304 312 318 319 314 304 267 249 237 231 224 219 217 219 223 225 223 226 228 229 228 230 231 232 234 237 240 242
239 239 240 241 245 250 259 266 264 270 273 271 270 274 275 277 279 281 290 295 297 299 303 308 309 307 302 280 261 246 237 225 218 219 223 224 226 227 229 231 233 235 236 236 237 238 242 245 246
240 240 241 241 242 243 253 262 262 263 266 265 264 265 268 271 272 277 284 290 293 294 295 295 298 292 286 279 261 248 237 224 221 222 223 225 228 231 234 235 237 239 242 243 243 243 247 250 252
238 238 239 239 243 242 238 253 260 258 258 259 258 258 259 262 267 273 279 285 287 288 289 291 293 291 279 271 259 249 240 231 226 225 227 230 231 233 236 239 240 241 243 245 246 249 251 252 253
Height
5903 5903 5903 5904 5904 5905 5904 5903 5901 5900 5899 5897 5896 5894 5893 5893 5893 5895 5892 5890 5890 5890 5890 5891 5892 5893 5894 5894 5895 5895 5895 5896 5896 5896 5896 5896 5896 5897 5897 5897 5897 5897 5897 5897 5897 5896 5897 5896 5896
5905 5904 5905 5905 5907 5907 5906 5904 5903 5901 5900 5898 5896 5895 5894 5893 5892 5892 5891 5890 5890 5890 5890 5891 5892 5893 5894 5894 5895 5895 5895 5896 5896 5896 5897 5897 5897 5897 5897 5897 5897 5897 5897 5897 5897 5897 5897 5897 5896
5906 5905 5906 5907 5908 5908 5907 5905 5903 5902 5900 5899 5897 5896 5895 5894 5893 5892 5892 5891 5891 5890 5891 5891 5892 5893 5893 5894 5895 5895 5896 5896 5896 5897 5897 5897 5897 5897 5898 5898 5897 5897 5897 5897 5897 5897 5897 5897 5897
5907 5907 5908 5909 5908 5908 5907 5905 5904 5902 5901 5900 5898 5897 5896 5895 5894 5893 5892 5891 5891 5891 5891 5891 5891 5892 5893 5894 5894 5895 5895 5896 5896 5897 5897 5897 5897 5897 5898 5898 5898 5897 5897 5897 5897 5897 5897 5897 5897
5907 5908 5909 5909 5909 5908 5907 5906 5905 5903 5902 5901 5899 5898 5897 5895 5894 5893 5892 5891 5891 5891 5891 5891 5891 5892 5892 5893 5894 5894 5895 5896 5896 5897 5897 5897 5897 5898 5898 5898 5898 5897 5897 5897 5897 5897 5897 5897 5897
5908 5909 5911 5911 5909 5909 5908 5907 5905 5904 5903 5901 5900 5899 5897 5896 5895 5893 5892 5892 5891 5891 5890 5890 5891 5891 5892 5892 5893 5894 5894 5895 5896 5896 5897 5897 5897 5898 5898 5898 5898 5897 5897 5897 5897 5897 5897 5897 5897
5909 5909 5910 5910 5909 5909 5908 5907 5906 5905 5904 5902 5901 5899 5898 5896 5895 5894 5892 5892 5891 5890 5890 5889 5889 5890 5890 5891 5892 5893 5894 5894 5895 5896 5897 5897 5897 5897 5898 5898 5898 5897 5897 5897 5897 5897 5897 5897 5897
5908 5909 5909 5910 5909 5909 5908 5907 5906 5905 5904 5903 5901 5899 5898 5896 5895 5894 5892 5891 5891 5890 5889 5888 5888 5888 5889 5890 5890 5891 5892 5893 5894 5895 5896 5896 5897 5897 5897 5897 5897 5897 5897 5897 5897 5897 5897 5897 5897
5908 5910 5910 5909 5909 5908 5907 5907 5906 5905 5904 5902 5901 5899 5898 5896 5895 5893 5892 5891 5890 5889 5888 5888 5887 5887 5887 5888 5889 5890 5891 5892 5893 5894 5895 5896 5896 5897 5897 5897 5897 5897 5897 5897 5897 5897 5897 5897 5897
5908 5909 5909 5908 5907 5907 5906 5906 5905 5904 5903 5902 5901 5899 5897 5896 5894 5893 5892 5890 5889 5888 5887 5886 5886 5885 5885 5886 5887 5888 5889 5890 5891 5893 5894 5895 5896 5896 5896 5897 5897 5897 5897 5897 5897 5897 5897 5897 5897
5907 5907 5907 5906 5906 5906 5905 5905 5904 5904 5903 5902 5901 5899 5897 5896 5894 5893 5891 5889 5888 5887 5885 5885 5884 5883 5883 5883 5884 5886 5887 5889 5890 5891 5892 5894 5895 5895 5896 5896 5897 5897 5897 5897 5897 5897 5897 5897 5897
5906 5906 5905 5905 5905 5904 5904 5904 5903 5903 5903 5901 5900 5898 5897 5895 5894 5892 5890 5888 5887 5885 5883 5882 5882 5881 5881 5881 5882 5883 5885 5887 5888 5890 5891 5893 5894 5895 5895 5896 5896 5897 5897 5897 5897 5897 5897 5897 5897
5905 5904 5904 5904 5904 5903 5903 5903 5902 5901 5901 5900 5899 5897 5896 5894 5892 5891 5889 5887 5885 5883 5882 5880 5879 5879 5879 5879 5880 5881 5883 5885 5887 5888 5890 5892 5893 5894 5895 5895 5896 5897 5897 5897 5897 5898 5898 5897 5897
5903 5903 5903 5902 5902 5902 5902 5901 5901 5900 5899 5898 5897 5896 5895 5893 5891 5890 5888 5885 5883 5881 5879 5877 5876 5876 5876 5877 5878 5879 5881 5883 5885 5887 5889 5891 5892 5893 5894 5895 5896 5896 5897 5897 5898 5898 5898 5898 5897
5901 5901 5901 5901 5901 5901 5901 5900 5900 5898 5898 5897 5896 5895 5894 5892 5890 5888 5886 5883 5881 5878 5876 5874 5873 5874 5874 5874 5875 5877 5879 5881 5883 5885 5887 5889 5891 5892 5893 5895 5895 5896 5897 5897 5897 5898 5898 5898 5898
5899 5900 5900 5900 5899 5899 5901 5900 5898 5897 5896 5895 5894 5893 5892 5890 5888 5886 5884 5881 5878 5876 5874 5872 5871 5871 5871 5871 5872 5874 5876 5879 5881 5883 5885 5887 5889 5891 5892 5894 5895 5896 5897 5897 5898 5898 5898 5898 5898
5897 5898 5898 5898 5897 5897 5898 5897 5896 5895 5895 5894 5893 5891 5890 5889 5887 5884 5882 5879 5876 5874 5871 5869 5868 5868 5869 5869 5870 5872 5875 5877 5879 5881 5883 5885 5888 5889 5891 5893 5894 5895 5896 5897 5898 5898 5898 5898 5898
5895 5895 5895 5895 5895 5895 5895 5895 5894 5893 5893 5892 5890 5889 5888 5887 5885 5883 5880 5878 5875 5872 5870 5868 5867 5867 5867 5867 5869 5871 5873 5875 5877 5879 5881 5883 5886 5888 5890 5892 5893 5895 5896 5897 5897 5898 5898 5898 5898
5892 5892 5892 5892 5892 5893 5893 5892 5892 5891 5890 5889 5888 5887 5886 5885 5883 5881 5879 5876 5873 5871 5868 5867 5866 5865 5865 5866 5867 5869 5871 5873 5875 5877 5879 5882 5884 5887 5889 5891 5893 5894 5895 5896 5897 5898 5898 5898 5898
5888 5889 5889 5889 5890 5890 5890 5890 5889 5888 5888 5887 5886 5885 5884 5883 5881 5879 5877 5874 5871 5869 5867 5865 5865 5864 5864 5865 5866 5867 5869 5871 5873 5875 5878 5880 5883 5885 5888 5890 5891 5893 5894 5895 5896 5897 5898 5898 5898
5884 5885 5886 5886 5887 5887 5888 5888 5887 5885 5885 5884 5883 5883 5881 5880 5879 5877 5875 5873 5870 5868 5866 5865 5863 5862 5862 5863 5864 5865 5867 5869 5872 5874 5876 5879 5881 5884 5886 5888 5890 5892 5893 5894 5895 5896 5897 5898 5898
5880 5881 5882 5883 5884 5885 5886 5887 5884 5883 5882 5881 5880 5880 5879 5878 5876 5875 5873 5871 5869 5866 5865 5863 5861 5860 5860 5861 5862 5863 5865 5867 5869 5872 5874 5876 5879 5882 5884 5886 5888 5890 5892 5893 5894 5895 5896 5897 5897
5875 5877 5878 5879 5881 5882 5882 5883 5884 5880 5879 5878 5877 5877 5876 5875 5874 5873 5871 5869 5867 5865 5864 5862 5860 5860 5859 5860 5860 5862 5863 5865 5867 5869 5872 5875 5877 5880 5882 5884 5886 5888 5890 5891 5893 5894 5895 5896 5896
5871 5873 5875 5876 5877 5878 5879 5880 5880 5878 5876 5876 5875 5874 5873 5873 5871 5870 5869 5867 5866 5864 5862 5861 5859 5859 5858 5858 5859 5860 5861 5863 5865 5867 5870 5873 5875 5878 5880 5882 5884 5886 5888 5889 5891 5892 5893 5894 5895
5867 5870 5872 5873 5874 5875 5874 5875 5876 5874 5873 5872 5872 5871 5871 5870 5869 5868 5867 5866 5864 5863 5861 5860 5858 5857 5857 5857 5858 5858 5859 5861 5863 5865 5868 5871 5873 5876 5878 5880 5882 5884 5886 5887 5888 5890 5891 5892 5893
5862 5865 5869 5871 5873 5873 5870 5871 5872 5870 5870 5869 5869 5869 5868 5868 5867 5866 5865 5864 5863 5862 5860 5859 5857 5856 5855 5856 5856 5857 5858 5859 5861 5863 5866 5868 5871 5873 5875 5877 5879 5881 5883 5885 5886 5887 5888 5889 5890
5856 5859 5863 5866 5867 5869 5868 5867 5867 5866 5866 5866 5866 5866 5866 5865 5864 5864 5863 5862 5861 5860 5859 5858 5857 5856 5855 5855 5855 5855 5856 5857 5859 5861 5863 5866 5868 5871 5872 5875 5877 5879 5880 5882 5883 5884 5886 5887 5887
5851 5854 5857 5860 5862 5864 5865 5864 5865 5863 5863 5863 5863 5863 5863 5863 5862 5862 5861 5860 5859 5859 5858 5857 5856 5855 5854 5854 5854 5854 5854 5855 5857 5859 5861 5863 5866 5868 5870 5872 5874 5875 5877 5878 5880 5881 5882 5883 5884
5846 5849 5851 5855 5858 5861 5863 5864 5860 5860 5860 5860 5860 5861 5861 5860 5860 5859 5859 5858 5857 5857 5856 5856 5855 5854 5854 5853 5853 5853 5853 5853 5855 5857 5859 5861 5863 5865 5867 5868 5870 5872 5873 5874 5876 5877 5878 5879 5879
5840 5843 5846 5850 5852 5854 5858 5862 5856 5856 5856 5857 5857 5858 5858 5858 5858 5857 5857 5856 5856 5855 5855 5854 5854 5853 5852 5852 5851 5851 5852 5852 5853 5855 5857 5858 5860 5861 5863 5864 5866 5867 5869 5870 5871 5872 5873 5874 5875